Location: Highridge
(54.0333°N, 114.1333°W)
Time: 15:25:09
(UTC+00:00)

SO-50 - Pass Details

Date: 05 December 2023
Orbit: 607 x 661 km, 64.6° (Epoch: 21 February)

Event Time Altitude Azimuth Distance (km) Brightness Sun altitude
Exits shadow 14:40:32 10° 299° (WNW) 2,066 ? -7.9°
Reaches altitude 10° 14:40:34 10° 299° (WNW) 2,055 ? -7.9°
Maximum altitude 14:44:17 23° 352° (N) 1,372 ? -7.4°
Drops below altitude 10° 14:47:57 10° 45° (NE) 2,028 ? -6.9°
Sets 14:50:39 0° 60° (ENE) 2,925 ? -6.6°
